New Kenley Weather Station. Now works across all platform including Mobile Phones. Bug reports please use the "Contact Us" link.

Kenley Weather Cam  Kenley Weather Cam


Rain radar more information rain snow radar



Select another period ( hide this area )

Units Period Custom range Directly to
Metric English Both
Daily Weekly Monthly Yearly
use both date-selectors for a custom range
previous Day
With this date

WeatherUnderground graphs for this period ( click here )


Daily Summary for Saturday Mar 28 2020
Time Temp. ( °C ) Dew pt. ( °C ) Wind ( km/h ) from Gust ( km/h ) Pressure ( hPa ) Humid.( % ) Rainrate ( cm )
High12,2 1,8 0,0 ( 0/0 ) 86,9 1032,4 80 -
Average7,9 0,0 0,0 Calm #102/102 35,8 1028,3 59 -
Low4,0 -2,9 -   12,9 1025,3 46 -
Daily Tabular details for Saturday Mar 28 2020
Time Temp. ( °C ) Dew pt. ( °C ) Wind ( km/h ) from Gust ( km/h ) Pressure ( hPa ) Humid.( % ) Rainrate ( cm )
00:04 4,3 0,4   Calm 14,5 1025,3 76 -
00:15 4,3 0,4   Calm 20,9 1025,3 76 -
00:25 4,2 0,3   Calm 24,1 1025,3 76 -
00:35 4,2 0,3   Calm 24,1 1025,3 76 -
00:46 4,1 0,3   Calm 19,3 1025,3 76 -
00:57 4,1 0,3   Calm 19,3 1025,3 76 -
01:07 4,1 0,3   Calm 14,5 1025,3 76 -
01:17 4,1 0,3   Calm 17,7 1025,3 76 -
01:28 4,0 0,2   Calm 17,7 1025,3 76 -
01:38 4,0 0,2   Calm 12,9 1025,3 76 -
01:49 4,0 0,3   Calm 14,5 1025,3 77 -
02:00 4,0 0,3   Calm 12,9 1025,3 77 -
02:10 4,0 0,3   Calm 24,1 1025,3 77 -
02:20 4,0 0,5   Calm 17,7 1025,3 78 -
02:30 4,1 0,6   Calm 12,9 1025,3 78 -
02:41 4,2 0,9   Calm 19,3 1025,3 79 -
02:52 4,3 1,2   Calm 19,3 1026,3 80 -
03:02 4,5 1,4   Calm 19,3 1026,3 80 -
03:12 4,7 1,5   Calm 25,7 1026,3 80 -
03:23 4,8 1,5   Calm 25,7 1026,3 79 -
03:34 5,1 1,6   Calm 19,3 1026,3 78 -
03:44 5,3 1,6   Calm 19,3 1026,3 77 -
03:54 5,7 1,8   Calm 19,3 1026,3 76 -
04:05 6,0 1,7   Calm 17,7 1026,3 74 -
04:16 6,3 1,6   Calm 38,6 1026,3 72 -
04:27 6,7 1,6   Calm 24,1 1026,3 70 -
04:37 7,1 1,5   Calm 30,6 1026,3 67 -
04:47 7,5 1,1   Calm 48,3 1026,3 64 -
04:57 7,9 1,1   Calm 48,3 1027,3 62 -
05:08 8,2 0,9   Calm 33,8 1027,3 60 -
05:19 8,5 0,7   Calm 19,3 1027,3 58 -
05:29 8,8 0,5   Calm 19,3 1027,3 56 -
05:39 9,1 0,5   Calm 51,5 1027,3 55 -
05:49 9,3 0,2   Calm 30,6 1027,3 53 -
06:00 9,4 0,0   Calm 59,5 1027,3 52 -
06:10 9,6 0,2   Calm 24,1 1027,3 52 -
06:20 9,9 0,5   Calm 25,7 1027,3 52 -
06:30 10,2 0,5   Calm 17,7 1027,3 51 -
06:40 10,4 0,7   Calm 19,3 1027,3 51 -
06:51 10,9 0,9   Calm 25,7 1028,3 50 -
07:01 11,1 0,8   Calm 33,8 1028,3 49 -
07:12 11,2 0,9   Calm 33,8 1028,3 49 -
07:23 11,4 0,8   Calm 46,7 1028,3 48 -
07:33 11,6 0,7   Calm 30,6 1028,3 47 -
07:43 11,6 0,7   Calm 53,1 1028,3 47 -
07:54 11,8 0,6   Calm 53,1 1028,3 46 -
08:04 11,9 0,6   Calm 51,5 1028,3 46 -
08:15 12,2 0,9   Calm 40,2 1028,3 46 -
08:25 12,0 1,0   Calm 41,8 1028,3 47 -
08:35 12,0 1,3   Calm 41,8 1028,3 48 -
08:46 11,9 1,5   Calm 19,3 1028,3 49 -
08:56 11,4 1,3   Calm 24,1 1028,3 50 -
09:07 11,2 1,4   Calm 30,6 1028,3 51 -
09:17 11,3 1,5   Calm 53,1 1028,3 51 -
09:28 11,0 1,2   Calm 40,2 1028,3 51 -
09:38 10,3 1,1   Calm 24,1 1028,3 53 -
09:48 10,0 1,4   Calm 41,8 1028,3 55 -
09:59 9,6 1,5   Calm 41,8 1028,3 57 -
10:09 9,5 1,4   Calm 51,5 1028,3 57 -
10:19 9,2 1,1   Calm 86,9 1028,3 57 -
10:29 9,2 1,0   Calm 86,9 1028,3 56 -
10:40 9,4 0,8   Calm 67,6 1028,3 55 -
10:51 9,8 0,4   Calm 41,8 1028,3 52 -
11:01 9,8 -0,1   Calm 64,4 1028,3 50 -
11:12 9,7 -0,2   Calm 64,4 1029,3 50 -
11:22 9,6 0,0   Calm 53,1 1029,3 51 -
11:33 9,7 0,0   Calm 53,1 1029,3 51 -
11:43 9,7 0,0   Calm 74,0 1029,3 51 -
11:53 9,6 -0,3   Calm 74,0 1029,3 50 -
12:04 9,4 -0,7   Calm 48,3 1029,3 49 -
12:14 9,3 -0,6   Calm 41,8 1029,3 50 -
12:24 9,3 -0,6   Calm 41,8 1029,3 50 -
12:34 9,3 -0,6   Calm 72,4 1029,3 50 -
12:45 9,2 -0,7   Calm 40,2 1029,3 50 -
12:56 9,2 -1,0   Calm 40,2 1029,3 49 -
13:06 9,3 -1,2   Calm 19,3 1029,3 48 -
13:17 9,3 -1,2   Calm 37,0 1029,3 48 -
13:27 9,0 -1,8   Calm 48,3 1029,3 47 -
13:37 8,7 -2,0   Calm 30,6 1029,3 47 -
13:47 8,7 -2,0   Calm 30,6 1029,3 47 -
13:58 8,6 -2,1   Calm 19,3 1030,4 47 -
14:09 8,5 -2,2   Calm 19,3 1030,4 47 -
14:19 8,5 -2,2   Calm 46,7 1030,4 47 -
14:30 8,3 -2,1   Calm 24,1 1030,4 48 -
14:40 8,1 -2,3   Calm 53,1 1030,4 48 -
14:50 7,9 -1,9   Calm 19,3 1030,4 50 -
15:01 7,6 -2,2   Calm 51,5 1030,4 50 -
15:11 7,4 -2,1   Calm 41,8 1031,4 51 -
15:21 7,3 -1,9   Calm 24,1 1031,4 52 -
15:31 7,0 -1,7   Calm 48,3 1031,4 54 -
15:42 6,9 -1,0   Calm 53,1 1031,4 57 -
15:53 6,7 -0,3   Calm 53,1 1031,4 61 -
16:03 6,5 -0,6   Calm 53,1 1031,4 60 -
16:14 6,1 -2,3   Calm 27,4 1031,4 55 -
16:25 5,9 -2,7   Calm 40,2 1032,4 54 -
16:35 5,7 -2,9   Calm 25,7 1032,4 54 -
16:45 5,6 -2,5   Calm 53,1 1032,4 56 -
16:56 5,5 -2,3   Calm 40,2 1032,4 57 -
17:06 5,4 -2,0   Calm 19,3 1032,4 59 -
17:17 5,3 -2,1   Calm 25,7 1032,4 59 -
17:27 5,2 -1,9   Calm 48,3 1032,4 60 -
17:37 5,3 -1,7   Calm 25,7 1032,4 61 -
Daily Summary for Saturday Mar 28 2020
Time Temp. ( °C ) Dew pt. ( °C ) Wind ( km/h ) from Gust ( km/h ) Pressure ( hPa ) Humid.( % ) Rainrate ( cm )
High12,2 1,8 0,0 ( 0/0 ) 86,9 1032,4 80 -
Average7,9 0,0 0,0 Calm #102/102 35,8 1028,3 59 -
Low4,0 -2,9 -   12,9 1025,3 46 -
Daily Tabular details for Saturday Mar 28 2020
Time Temp. ( °C ) Dew pt. ( °C ) Wind ( km/h ) from Gust ( km/h ) Pressure ( hPa ) Humid.( % ) Rainrate ( cm )
00:04 4,3 0,4   Calm 14,5 1025,3 76 -
00:15 4,3 0,4   Calm 20,9 1025,3 76 -
00:25 4,2 0,3   Calm 24,1 1025,3 76 -
00:35 4,2 0,3   Calm 24,1 1025,3 76 -
00:46 4,1 0,3   Calm 19,3 1025,3 76 -
00:57 4,1 0,3   Calm 19,3 1025,3 76 -
01:07 4,1 0,3   Calm 14,5 1025,3 76 -
01:17 4,1 0,3   Calm 17,7 1025,3 76 -
01:28 4,0 0,2   Calm 17,7 1025,3 76 -
01:38 4,0 0,2   Calm 12,9 1025,3 76 -
01:49 4,0 0,3   Calm 14,5 1025,3 77 -
02:00 4,0 0,3   Calm 12,9 1025,3 77 -
02:10 4,0 0,3   Calm 24,1 1025,3 77 -
02:20 4,0 0,5   Calm 17,7 1025,3 78 -
02:30 4,1 0,6   Calm 12,9 1025,3 78 -
02:41 4,2 0,9   Calm 19,3 1025,3 79 -
02:52 4,3 1,2   Calm 19,3 1026,3 80 -
03:02 4,5 1,4   Calm 19,3 1026,3 80 -
03:12 4,7 1,5   Calm 25,7 1026,3 80 -
03:23 4,8 1,5   Calm 25,7 1026,3 79 -
03:34 5,1 1,6   Calm 19,3 1026,3 78 -
03:44 5,3 1,6   Calm 19,3 1026,3 77 -
03:54 5,7 1,8   Calm 19,3 1026,3 76 -
04:05 6,0 1,7   Calm 17,7 1026,3 74 -
04:16 6,3 1,6   Calm 38,6 1026,3 72 -
04:27 6,7 1,6   Calm 24,1 1026,3 70 -
04:37 7,1 1,5   Calm 30,6 1026,3 67 -
04:47 7,5 1,1   Calm 48,3 1026,3 64 -
04:57 7,9 1,1   Calm 48,3 1027,3 62 -
05:08 8,2 0,9   Calm 33,8 1027,3 60 -
05:19 8,5 0,7   Calm 19,3 1027,3 58 -
05:29 8,8 0,5   Calm 19,3 1027,3 56 -
05:39 9,1 0,5   Calm 51,5 1027,3 55 -
05:49 9,3 0,2   Calm 30,6 1027,3 53 -
06:00 9,4 0,0   Calm 59,5 1027,3 52 -
06:10 9,6 0,2   Calm 24,1 1027,3 52 -
06:20 9,9 0,5   Calm 25,7 1027,3 52 -
06:30 10,2 0,5   Calm 17,7 1027,3 51 -
06:40 10,4 0,7   Calm 19,3 1027,3 51 -
06:51 10,9 0,9   Calm 25,7 1028,3 50 -
07:01 11,1 0,8   Calm 33,8 1028,3 49 -
07:12 11,2 0,9   Calm 33,8 1028,3 49 -
07:23 11,4 0,8   Calm 46,7 1028,3 48 -
07:33 11,6 0,7   Calm 30,6 1028,3 47 -
07:43 11,6 0,7   Calm 53,1 1028,3 47 -
07:54 11,8 0,6   Calm 53,1 1028,3 46 -
08:04 11,9 0,6   Calm 51,5 1028,3 46 -
08:15 12,2 0,9   Calm 40,2 1028,3 46 -
08:25 12,0 1,0   Calm 41,8 1028,3 47 -
08:35 12,0 1,3   Calm 41,8 1028,3 48 -
08:46 11,9 1,5   Calm 19,3 1028,3 49 -
08:56 11,4 1,3   Calm 24,1 1028,3 50 -
09:07 11,2 1,4   Calm 30,6 1028,3 51 -
09:17 11,3 1,5   Calm 53,1 1028,3 51 -
09:28 11,0 1,2   Calm 40,2 1028,3 51 -
09:38 10,3 1,1   Calm 24,1 1028,3 53 -
09:48 10,0 1,4   Calm 41,8 1028,3 55 -
09:59 9,6 1,5   Calm 41,8 1028,3 57 -
10:09 9,5 1,4   Calm 51,5 1028,3 57 -
10:19 9,2 1,1   Calm 86,9 1028,3 57 -
10:29 9,2 1,0   Calm 86,9 1028,3 56 -
10:40 9,4 0,8   Calm 67,6 1028,3 55 -
10:51 9,8 0,4   Calm 41,8 1028,3 52 -
11:01 9,8 -0,1   Calm 64,4 1028,3 50 -
11:12 9,7 -0,2   Calm 64,4 1029,3 50 -
11:22 9,6 0,0   Calm 53,1 1029,3 51 -
11:33 9,7 0,0   Calm 53,1 1029,3 51 -
11:43 9,7 0,0   Calm 74,0 1029,3 51 -
11:53 9,6 -0,3   Calm 74,0 1029,3 50 -
12:04 9,4 -0,7   Calm 48,3 1029,3 49 -
12:14 9,3 -0,6   Calm 41,8 1029,3 50 -
12:24 9,3 -0,6   Calm 41,8 1029,3 50 -
12:34 9,3 -0,6   Calm 72,4 1029,3 50 -
12:45 9,2 -0,7   Calm 40,2 1029,3 50 -
12:56 9,2 -1,0   Calm 40,2 1029,3 49 -
13:06 9,3 -1,2   Calm 19,3 1029,3 48 -
13:17 9,3 -1,2   Calm 37,0 1029,3 48 -
13:27 9,0 -1,8   Calm 48,3 1029,3 47 -
13:37 8,7 -2,0   Calm 30,6 1029,3 47 -
13:47 8,7 -2,0   Calm 30,6 1029,3 47 -
13:58 8,6 -2,1   Calm 19,3 1030,4 47 -
14:09 8,5 -2,2   Calm 19,3 1030,4 47 -
14:19 8,5 -2,2   Calm 46,7 1030,4 47 -
14:30 8,3 -2,1   Calm 24,1 1030,4 48 -
14:40 8,1 -2,3   Calm 53,1 1030,4 48 -
14:50 7,9 -1,9   Calm 19,3 1030,4 50 -
15:01 7,6 -2,2   Calm 51,5 1030,4 50 -
15:11 7,4 -2,1   Calm 41,8 1031,4 51 -
15:21 7,3 -1,9   Calm 24,1 1031,4 52 -
15:31 7,0 -1,7   Calm 48,3 1031,4 54 -
15:42 6,9 -1,0   Calm 53,1 1031,4 57 -
15:53 6,7 -0,3   Calm 53,1 1031,4 61 -
16:03 6,5 -0,6   Calm 53,1 1031,4 60 -
16:14 6,1 -2,3   Calm 27,4 1031,4 55 -
16:25 5,9 -2,7   Calm 40,2 1032,4 54 -
16:35 5,7 -2,9   Calm 25,7 1032,4 54 -
16:45 5,6 -2,5   Calm 53,1 1032,4 56 -
16:56 5,5 -2,3   Calm 40,2 1032,4 57 -
17:06 5,4 -2,0   Calm 19,3 1032,4 59 -
17:17 5,3 -2,1   Calm 25,7 1032,4 59 -
17:27 5,2 -1,9   Calm 48,3 1032,4 60 -
17:37 5,3 -1,7   Calm 25,7 1032,4 61 -

Download your copy of this data-set  here

Our weather-data as stored at Weather Underground. Script developed by Jim McMurry. Adapted for the template by Leuven-Template.eu

You find our weather info also at:

Weather Underground

Equipment we use:

Weather-station
Oregon WMR928

Weather-server
ALIX_1D

Provider
Meteohub

Oregon WMR928

ALIX_1D

Meteohub